[[{"header":{"parameterUnit":"m.s-1","parameterCategory":1,"la1":30.2991,"la2":30.254,"lo1":-89.0895,"lo2":-89.0444,"dy":0.0017,"dx":0.0017,"nx":28,"ny":28,"refTime":"2026-02-06T03:00:00:Z","depth":0,"parameterNumber":2,"parameterNumberName":"U-component_of_WINDS"},"data":[0,0,0,0,0,0,0,0,0,0,0,0,0,0,0,0,0,0,0,0,0,0,0,0,0,0,0,0,0,0,0,0,0,0,0,0,0,0,0,0,0,0,0,0,0,0,0,0,0,0,0,0,0,0,0,0,0,0,6.5607,6.5609,0,6.5765,6.5767,6.5769,6.5705,6.5701,6.5698,6.5694,6.586,6.5867,6.5875,0,0,0,0,0,0,0,0,0,0,0,0,0,6.5253,6.526,6.5607,6.5609,6.5611,6.5765,6.5767,6.5769,6.5706,6.5701,6.5697,6.5692,6.5857,6.5866,6.5876,0,0,0,0,0,0,0,0,0,0,0,0,0,6.5409,6.5262,6.5607,6.5598,6.5598,6.5765,6.5767,6.577,6.5707,6.5701,6.5695,6.569,6.5854,6.5865,6.5877,6.6063,0,0,6.5913,6.5919,0,0,0,0,0,0,0,0,6.54,6.5422,6.5597,6.5599,6.56,6.571,6.5703,6.5868,6.5708,6.5666,6.5694,6.5687,6.5815,6.5829,6.5871,6.6071,6.6078,6.5914,6.5922,6.5927,6.593,0,0,0,0,0,0,0,6.5389,6.5414,6.567,6.56,6.5601,6.5587,6.5603,6.5734,6.577,6.5669,6.5665,6.5684,6.5814,6.586,6.5875,6.608,6.5914,6.5925,6.5932,6.5937,6.644,6.6446,0,0,0,0,0,0,6.5378,6.5406,6.5665,6.5674,6.5484,6.5598,6.5615,6.568,6.5768,6.5776,6.5689,6.5681,6.5843,6.5861,6.588,6.6103,6.5927,6.5938,6.5945,6.6434,6.6441,6.6448,0,0,0,0,0,0,6.537,6.5401,6.5658,6.5539,6.5571,6.561,6.5683,6.5686,6.5732,6.5783,6.5789,6.5729,6.5839,6.5864,6.6018,6.6108,6.5943,6.5954,6.6426,6.6436,6.6445,6.6551,0,0,0,0,0,0,6.536,6.5399,6.5469,6.5541,6.5577,6.5792,6.5688,6.5693,6.5752,6.5743,6.5822,6.583,6.5836,6.6,6.603,6.6122,6.5963,6.6418,6.6431,6.6442,6.6539,6.6563,6.6583,0,0,0,0,0,6.5348,6.5493,6.5473,6.5504,6.5665,6.5797,6.5818,6.5821,6.576,6.5831,6.5864,6.5828,6.6094,6.6017,6.6049,6.6146,6.6413,6.6427,6.6441,6.653,6.6558,6.6582,0,0,0,0,0,0,6.5431,6.5502,6.5481,6.5653,6.572,6.5786,6.5876,6.5851,6.5938,6.5925,6.5927,6.5946,6.6104,6.6141,6.6054,6.633,6.6244,6.6265,6.6301,6.6328,6.6349,6.6337,6.5973,0,0,0,0,0,6.547,6.557,6.5627,6.5774,6.5809,6.5837,6.5895,6.5891,6.5961,6.5989,6.6033,6.6102,6.6202,6.6267,6.6361,6.6545,6.6561,6.6628,6.6649,6.6667,6.6685,6.6785,6.6815,6.6494,6.6494,6.6494,0,0,6.5551,6.5602,6.5665,6.5792,6.5843,6.5948,6.5861,6.5975,6.6053,6.6006,6.6154,6.6189,6.6267,6.6437,6.6514,6.6472,6.6777,6.6685,6.6698,6.6707,6.6802,6.6833,6.6859,6.6504,6.6502,6.6501,0,0,6.5751,6.5799,6.5927,6.598,6.6058,6.6076,6.6107,6.6178,6.6199,6.6347,6.6314,6.6408,6.6579,6.6635,6.6687,6.691,6.688,6.6941,6.7053,6.7151,6.7176,6.7198,6.7277,6.7306,6.6959,6.6959,6.6959,0,6.5841,6.5996,6.5996,6.6113,6.6171,6.6132,6.6262,6.6314,6.642,6.6461,6.6412,6.6626,6.6676,6.6858,6.6912,6.6956,6.6991,6.6931,6.7172,6.7194,6.7215,6.7291,6.7321,6.6966,6.6965,6.6964,6.6964,0,6.6104,6.6212,6.6306,6.6408,6.6476,6.6599,6.6619,6.6688,6.6679,6.6703,6.6855,6.6913,6.7019,6.7062,6.7055,6.7244,6.7216,6.717,6.7083,6.7253,6.7324,6.7353,6.6976,6.6973,6.6971,6.6969,0,0,6.636,6.646,6.6495,6.654,6.6624,6.6709,6.6831,6.6933,6.6992,6.7067,6.7169,6.7315,6.7274,6.7332,6.7331,6.7417,6.759,6.7361,6.7363,6.7401,6.7802,6.7835,6.7868,6.7571,6.7576,6.7581,6.7795,0,6.6566,6.6778,6.6782,6.6977,6.7078,6.7044,6.715,6.7214,6.724,6.7329,6.7358,6.7461,6.7399,6.7434,6.7517,6.7551,6.767,6.7536,6.7667,6.7671,6.7647,6.7905,6.7941,6.8139,6.7823,6.7827,6.7831,0,6.6834,6.6916,6.7121,6.7191,6.7233,6.7328,6.7422,6.7509,6.7581,6.7594,6.7659,6.7646,6.7772,6.7682,6.7855,6.7764,6.7818,6.7843,6.7851,6.7862,6.776,6.7923,6.8203,6.8232,6.7875,6.7871,6.7868,0,6.6999,6.7162,6.7305,6.7345,6.7431,6.7498,6.7537,6.7604,6.7665,6.7748,6.7788,6.7885,6.7938,6.8014,6.8028,6.7961,6.8202,6.8113,6.8216,6.8216,6.8268,6.8264,6.8559,6.8305,6.8304,6.8303,6.8303,0,6.7228,6.7355,6.738,6.7469,6.761,6.7614,6.7755,6.7788,6.7848,6.7943,6.792,6.801,6.8023,6.8117,6.8129,6.8271,6.8295,6.8309,6.8311,6.8311,6.8309,6.8345,6.8332,6.8311,6.831,6.8308,6.8307,0,6.7436,6.7458,6.7612,6.7681,6.7701,6.7802,6.786,6.7946,6.7969,6.809,6.8118,6.8156,6.8265,6.8286,6.8416,6.8424,6.8592,6.8581,6.8568,6.8566,6.8668,6.8658,6.8996,6.9041,6.8758,6.876,6.8763,0,6.758,6.7677,6.7755,6.7817,6.7858,6.7958,6.802,6.8029,6.8095,6.8185,6.8259,6.8366,6.8451,6.8627,6.8666,6.8765,6.8755,6.8867,6.877,6.8767,6.8756,6.875,6.8759,6.8885,6.8888,6.8891,6.8893,0,6.7833,6.784,6.793,6.8024,6.8099,6.8174,6.8245,6.8297,6.8316,6.8391,6.8502,6.8568,6.87,6.8806,6.8905,6.8946,6.8923,6.8924,6.8952,6.8953,6.8941,6.8948,6.8617,6.8915,6.8913,6.8911,6.891,6.8909,6.8013,6.8097,6.8166,6.8267,6.8321,6.8389,6.8472,6.8506,6.8598,6.8704,6.8705,6.8826,6.8897,6.9027,6.9074,6.917,6.9135,6.9177,6.9187,6.9197,6.9206,6.8927,6.9188,6.9188,6.9187,6.9187,6.9186,0,6.8265,6.8307,6.84,6.85,6.858,6.8551,6.8629,6.8698,6.8804,6.8871,6.8956,6.9083,6.9186,6.9234,6.9336,6.9403,6.9395,6.943,6.9424,6.9434,6.9232,6.9197,6.9434,6.9434,6.9434,6.9434,6.9434,6.9434,6.8404,6.8545,6.856,6.8728,6.877,6.8887,6.8934,6.8996,6.905,6.9193,6.9278,6.9308,6.9368,6.9474,6.9567,6.9579,6.9617,6.9656,6.9663,6.9474,6.9448,6.9424,6.939,6.9665,6.9665,6.9856,6.9858,6.9859]},{"header":{"parameterUnit":"m.s-1","parameterCategory":1,"la1":30.2991,"la2":30.254,"lo1":-89.0895,"lo2":-89.0444,"dy":0.0017,"dx":0.0017,"nx":28,"ny":28,"refTime":"2026-02-06T03:00:00:Z","depth":0,"parameterNumber":3,"parameterNumberName":"V-component_of_WINDS"},"data":[0,0,0,0,0,0,0,0,0,0,0,0,0,0,0,0,0,0,0,0,0,0,0,0,0,0,0,0,0,0,0,0,0,0,0,0,0,0,0,0,0,0,0,0,0,0,0,0,0,0,0,0,0,0,0,0,0,0,2.6054,2.6055,0,2.6179,2.6181,2.6182,2.6183,2.6182,2.618,2.6179,2.6306,2.631,2.6315,0,0,0,0,0,0,0,0,0,0,0,0,0,2.5811,2.5816,2.6053,2.6055,2.6057,2.6179,2.6181,2.6183,2.6184,2.6182,2.618,2.6178,2.6304,2.631,2.6316,0,0,0,0,0,0,0,0,0,0,0,0,0,2.5925,2.5817,2.6053,2.6072,2.6075,2.6179,2.6181,2.6183,2.6184,2.6182,2.6179,2.6177,2.6302,2.6309,2.6316,2.641,0,0,2.6339,2.6342,0,0,0,0,0,0,0,0,2.5918,2.5934,2.6068,2.6071,2.6074,2.6163,2.6142,2.6259,2.6185,2.6142,2.6178,2.6176,2.626,2.6271,2.6299,2.6416,2.6421,2.6339,2.6344,2.6347,2.6349,0,0,0,0,0,0,0,2.591,2.5928,2.6103,2.6069,2.6074,2.6073,2.6087,2.6164,2.6213,2.6146,2.6146,2.6161,2.6261,2.6292,2.6302,2.6423,2.6339,2.6346,2.635,2.6353,2.662,2.6623,0,0,0,0,0,0,2.5899,2.5922,2.6099,2.6107,2.5989,2.6079,2.6094,2.6137,2.6212,2.6221,2.6163,2.6161,2.6281,2.6294,2.6307,2.6421,2.6347,2.6354,2.6358,2.6618,2.6621,2.6624,0,0,0,0,0,0,2.5894,2.5915,2.6094,2.6015,2.6037,2.6086,2.6134,2.6141,2.6172,2.6225,2.6234,2.6186,2.628,2.6297,2.6384,2.6425,2.6357,2.6364,2.6614,2.6619,2.6622,2.6649,0,0,0,0,0,0,2.5887,2.5913,2.595,2.6015,2.6042,2.617,2.6137,2.6145,2.6185,2.6183,2.6249,2.6258,2.6279,2.6373,2.6391,2.6434,2.6369,2.6611,2.6616,2.6621,2.6645,2.6653,2.6661,0,0,0,0,0,2.5878,2.5952,2.5952,2.5973,2.6089,2.6173,2.6187,2.6211,2.6188,2.6225,2.6259,2.6256,2.6417,2.6382,2.6402,2.6448,2.6609,2.6615,2.6621,2.6641,2.6652,2.6661,0,0,0,0,0,0,2.589,2.5961,2.5961,2.6059,2.611,2.6173,2.622,2.6222,2.628,2.6276,2.6301,2.6316,2.6403,2.6434,2.6393,2.6541,2.651,2.652,2.6518,2.6529,2.6537,2.6528,2.6376,0,0,0,0,0,2.5904,2.5967,2.6025,2.6105,2.6131,2.6171,2.6208,2.6222,2.6275,2.6297,2.6337,2.6389,2.6451,2.6492,2.6552,2.6649,2.6663,2.669,2.6698,2.6704,2.6713,2.6766,2.6779,2.6644,2.6644,2.6644,0,0,2.5933,2.598,2.6018,2.6109,2.615,2.6214,2.6189,2.6258,2.6305,2.6307,2.6392,2.6423,2.6482,2.6575,2.6617,2.6603,2.6753,2.6712,2.6717,2.6723,2.6774,2.6786,2.6798,2.6648,2.6647,2.6647,0,0,2.602,2.6061,2.6133,2.6174,2.6236,2.6262,2.6279,2.6342,2.6363,2.6449,2.6451,2.6507,2.6614,2.6656,2.6691,2.6791,2.679,2.681,2.6853,2.6904,2.6914,2.6924,2.6959,2.6972,2.6818,2.6818,2.6818,0,2.6048,2.6145,2.6169,2.6238,2.6277,2.6282,2.6354,2.6392,2.6471,2.6498,2.648,2.6614,2.6654,2.6756,2.678,2.6808,2.6828,2.6803,2.6911,2.6921,2.693,2.6964,2.6977,2.682,2.682,2.682,2.682,0,2.6177,2.6244,2.6294,2.637,2.6415,2.6485,2.6518,2.6561,2.657,2.6597,2.6683,2.6731,2.6801,2.6826,2.6835,2.6929,2.6918,2.6905,2.6875,2.6944,2.6977,2.699,2.6823,2.6822,2.6822,2.6821,0,0,2.6276,2.6363,2.6381,2.6416,2.6484,2.6536,2.6605,2.6674,2.6709,2.6763,2.6821,2.6911,2.6899,2.6939,2.6953,2.6998,2.7073,2.698,2.6982,2.6996,2.7178,2.7188,2.7203,2.7073,2.7075,2.7077,2.7174,0,2.637,2.6495,2.6517,2.6625,2.6687,2.6691,2.6751,2.6799,2.6826,2.6881,2.691,2.6974,2.6954,2.6978,2.7022,2.7055,2.7111,2.7048,2.7127,2.7129,2.7113,2.722,2.723,2.7319,2.7186,2.7189,2.719,0,2.6497,2.6554,2.6668,2.6727,2.6754,2.6808,2.6872,2.6925,2.6979,2.6995,2.7039,2.7047,2.7118,2.7083,2.7181,2.7138,2.7171,2.7191,2.7195,2.7204,2.7165,2.7232,2.7348,2.7361,2.721,2.7209,2.7207,0,2.6557,2.6662,2.6744,2.6773,2.6845,2.6882,2.6913,2.6965,2.7004,2.7059,2.7085,2.7148,2.7182,2.723,2.7254,2.7227,2.735,2.7317,2.7365,2.7364,2.7392,2.739,2.7515,2.7412,2.7412,2.7411,2.7411,0,2.666,2.673,2.6773,2.6823,2.6901,2.6925,2.7001,2.7032,2.7077,2.7133,2.7139,2.7191,2.722,2.7276,2.7295,2.7373,2.7388,2.7403,2.7407,2.7403,2.7401,2.7425,2.742,2.7415,2.7414,2.7414,2.7413,0,2.6741,2.6773,2.6863,2.6922,2.6939,2.6994,2.7044,2.7093,2.7119,2.7189,2.7207,2.7247,2.7313,2.7342,2.7423,2.7436,2.7524,2.7524,2.7507,2.7508,2.7555,2.755,2.7701,2.7721,2.7604,2.7605,2.7606,0,2.6805,2.6859,2.6925,2.6963,2.6995,2.7056,2.7096,2.7122,2.7163,2.7227,2.7268,2.7334,2.7388,2.7493,2.7529,2.759,2.7592,2.764,2.7601,2.7595,2.7593,2.759,2.7595,2.7648,2.7649,2.765,2.7651,0,2.6916,2.6928,2.6986,2.705,2.7098,2.7149,2.7198,2.7229,2.7261,2.7307,2.7375,2.7417,2.7499,2.7564,2.7628,2.7659,2.766,2.7662,2.7677,2.7673,2.7661,2.7668,2.7527,2.7659,2.7658,2.7658,2.7657,2.7657,2.6991,2.7038,2.7092,2.7156,2.7196,2.7242,2.7291,2.7322,2.7379,2.7449,2.746,2.7532,2.7582,2.7668,2.7701,2.7757,2.7745,2.7766,2.7771,2.7776,2.7779,2.7651,2.7768,2.7768,2.7768,2.7768,2.7768,0,2.7101,2.7135,2.7194,2.7264,2.7314,2.7311,2.7365,2.7407,2.7471,2.7518,2.7571,2.7648,2.7711,2.7752,2.7815,2.7852,2.7854,2.7867,2.7865,2.7872,2.7786,2.7767,2.7865,2.7865,2.7865,2.7865,2.7865,2.7865,2.7165,2.7246,2.7264,2.7364,2.7398,2.7469,2.75,2.7542,2.758,2.7666,2.7719,2.7745,2.7789,2.7855,2.7913,2.7923,2.7946,2.796,2.797,2.7888,2.7878,2.7869,2.7852,2.7965,2.7965,2.8051,2.8052,2.8053]}]]